DW6485 Weather Reports


time (UTC)temp
C
wind
direction
speed
KPH
gust
KPH
rain 1hr
cm
rain 24hr
cm
rain mn
cm
humidity
%
barometer
mb
20260503005232 21 221 12.9 12.9 0.00 0.00 0.00 12 1017.5
20260503004727 21 214 6.4 11.3 0.00 0.00 0.00 13 1017.5
20260503004226 21 171 8.0 12.9 0.00 0.00 0.00 13 1017.5
20260503003723 21 158 11.3 16.1 0.00 0.00 0.00 12 1017.5
20260503003220 21 167 11.3 16.1 0.00 0.00 0.00 12 1017.5
20260503002716 21 101 4.8 8.0 0.00 0.00 0.00 13 1017.5
20260503002214 21 169 4.8 8.0 0.00 0.00 0.00 13 1017.7
20260503001709 21 30 1.6 4.8 0.00 0.00 0.00 13 1017.6
20260503001206 21 83 4.8 6.4 0.00 0.00 0.00 13 1017.5
20260503000704 21 67 6.4 11.3 0.00 0.00 0.00 12 1017.7
20260503000203 21 96 9.7 16.1 0.00 0.00 0.00 12 1017.6
20260502235658 21 116 6.4 12.9 0.00 0.00 0.00 12 1018.0
20260502235156 21 108 8.0 12.9 0.00 0.00 0.00 13 1017.6
20260502234652 21 111 14.5 19.3 0.00 0.00 0.00 12 1017.7
20260502234149 21 147 12.9 19.3 0.00 0.00 0.00 12 1017.8
20260502233645 21 180 4.8 16.1 0.00 0.00 0.00 12 1017.8
20260502233142 21 108 3.2 4.8 0.00 0.00 0.00 12 1018.1
20260502232637 21 173 6.4 8.0 0.00 0.00 0.00 12 1017.8
20260502232135 21 172 11.3 19.3 0.00 0.00 0.00 12 1018.1
20260502231632 22 174 9.7 22.5 0.00 0.00 0.00 12 1017.8
20260502231130 22 199 22.5 24.1 0.00 0.00 0.00 11 1017.8
20260502230628 22 197 19.3 22.5 0.00 0.00 0.00 11 1018.0
20260502230126 22 160 19.3 22.5 0.00 0.00 0.00 11 1018.2
20260502225621 22 178 29.0 33.8 0.00 0.00 0.00 11 1018.1
20260502225118 22 191 6.4 12.9 0.00 0.00 0.00 10 1018.0
20260502224615 22 208 16.1 25.7 0.00 0.00 0.00 10 1018.3
20260502224111 22 202 20.9 25.7 0.00 0.00 0.00 10 1018.3
20260502223609 21 165 11.3 17.7 0.00 0.00 0.00 10 1018.4
20260502223108 21 150 24.1 29.0 0.00 0.00 0.00 10 1018.7
20260502222605 21 231 27.4 35.4 0.00 0.00 0.00 10 1018.4
20260502222101 21 157 19.3 33.8 0.00 0.00 0.00 12 1018.5
20260502221556 21 136 17.7 25.7 0.00 0.00 0.00 12 1018.9
20260502221054 21 71 17.7 19.3 0.00 0.00 0.00 12 1018.8
20260502220549 21 69 11.3 16.1 0.00 0.00 0.00 12 1018.5
20260502220046 22 83 11.3 22.5 0.00 0.00 0.00 12 1018.8
20260502215544 22 150 17.7 37.0 0.00 0.00 0.00 11 1018.8
20260502215040 22 175 16.1 17.7 0.00 0.00 0.00 12 1018.7
20260502214537 21 173 9.7 24.1 0.00 0.00 0.00 12 1018.9
20260502214035 22 180 11.3 17.7 0.00 0.00 0.00 13 1019.2
20260502213532 21 198 20.9 24.1 0.00 0.00 0.00 12 1019.4
20260502213030 22 166 14.5 19.3 0.00 0.00 0.00 12 1019.2
20260502212528 22 301 9.7 12.9 0.00 0.00 0.00 12 1019.2
20260502212026 21 252 14.5 16.1 0.00 0.00 0.00 12 1019.4
20260502211521 21 184 22.5 29.0 0.00 0.00 0.00 12 1019.5
20260502211018 22 177 16.1 24.1 0.00 0.00 0.00 12 1019.5
20260502210515 21 204 6.4 11.3 0.00 0.00 0.00 13 1019.6
20260502210012 21 81 6.4 19.3 0.00 0.00 0.00 13 1019.5
20260502205509 20 155 8.0 11.3 0.00 0.00 0.00 14 1019.7
20260502205006 21 131 9.7 24.1 0.00 0.00 0.00 14 1019.7
20260502204503 21 141 17.7 22.5 0.00 0.00 0.00 14 1019.6
20260502204001 20 146 14.5 19.3 0.00 0.00 0.00 14 1019.8
20260502203457 21 142 20.9 33.8 0.00 0.00 0.00 14 1019.9
20260502202954 21 146 16.1 24.1 0.00 0.00 0.00 14 1019.9
20260502202450 21 162 16.1 24.1 0.00 0.00 0.00 14 1019.9
20260502201949 21 176 24.1 29.0 0.00 0.00 0.00 14 1019.9
20260502201444 21 181 24.1 25.7 0.00 0.00 0.00 14 1020.1
20260502200941 21 103 11.3 16.1 0.00 0.00 0.00 15 1019.8
20260502200437 21 162 24.1 29.0 0.00 0.00 0.00 15 1019.9
20260502195935 21 158 20.9 33.8 0.00 0.00 0.00 15 1019.9
20260502195432 21 131 8.0 22.5 0.00 0.00 0.00 15 1020.1
20260502194928 21 162 20.9 25.7 0.00 0.00 0.00 15 1020.3
20260502194425 21 152 9.7 16.1 0.00 0.00 0.00 15 1020.2
20260502193921 21 160 6.4 12.9 0.00 0.00 0.00 16 1020.3
20260502193418 21 183 17.7 22.5 0.00 0.00 0.00 16 1020.3
20260502192913 20 49 14.5 22.5 0.00 0.00 0.00 17 1020.5
20260502192411 20 99 17.7 25.7 0.00 0.00 0.00 17 1020.7
20260502191908 21 107 14.5 25.7 0.00 0.00 0.00 17 1020.7
20260502191406 20 140 20.9 25.7 0.00 0.00 0.00 18 1020.8
20260502190903 20 138 27.4 30.6 0.00 0.00 0.00 17 1020.9
20260502190400 20 75 17.7 25.7 0.00 0.00 0.00 18 1020.8
20260502185856 19 209 4.8 17.7 0.00 0.00 0.00 18 1020.9
20260502185351 20 96 17.7 24.1 0.00 0.00 0.00 18 1021.0
20260502184849 19 62 6.4 16.1 0.00 0.00 0.00 18 1021.1
20260502184344 20 166 16.1 22.5 0.00 0.00 0.00 18 1021.2
20260502183841 19 324 1.6 22.5 0.00 0.00 0.00 19 1021.5
20260502183337 19 178 16.1 37.0 0.00 0.00 0.00 19 1021.5
20260502182832 19 112 20.9 24.1 0.00 0.00 0.00 18 1021.6
20260502182328 18 59 3.2 8.0 0.00 0.00 0.00 19 1021.5
20260502181825 18 144 19.3 19.3 0.00 0.00 0.00 19 1021.8
20260502181324 18 126 12.9 17.7 0.00 0.00 0.00 19 1021.7
20260502180821 18 116 8.0 12.9 0.00 0.00 0.00 19 1021.8
20260502180319 18 62 4.8 11.3 0.00 0.00 0.00 18 1021.9
20260502170232 15 28 8.0 8.0 0.00 0.00 0.00 22 1022.5
20260502164219 15 37 6.4 12.9 0.00 0.00 0.00 22 1022.6
20260502163714 15 187 4.8 8.0 0.00 0.00 0.00 22 1022.6
20260502163211 13 65 1.6 6.4 0.00 0.00 0.00 23 1022.8
20260502162708 13 83 8.0 12.9 0.00 0.00 0.00 23 1022.6
20260502162205 13 35 9.7 11.3 0.00 0.00 0.00 23 1022.9
20260502161702 12 77 11.3 12.9 0.00 0.00 0.00 24 1022.8
20260502161158 12 109 8.0 8.0 0.00 0.00 0.00 25 1022.9
20260502160657 12 79 4.8 8.0 0.00 0.00 0.00 25 1022.9
20260502160155 11 114 8.0 11.3 0.00 0.00 0.00 25 1022.8
20260502152109 7 81 8.0 11.3 0.00 0.00 0.00 34 1023.2
20260502151606 7 78 8.0 11.3 0.00 0.00 0.00 34 1023.1
20260502151104 7 83 4.8 11.3 0.00 0.00 0.00 34 1022.8
20260502150601 6 68 6.4 11.3 0.00 0.00 0.00 35 1023.0
20260502130446 -2 341 0.0 0.0 0.00 0.00 0.00 49 1022.3
20260502123429 -1 51 3.2 6.4 0.00 0.00 0.00 48 1022.4
20260502122926 -2 349 0.0 1.6 0.00 0.00 0.00 49 1022.3
20260502122422 -3 2 1.6 1.6 0.00 0.00 0.00 51 1022.2
20260502121920 -3 335 0.0 0.0 0.00 0.00 0.00 50 1022.1
20260502121417 -3 339 0.0 1.6 0.00 0.00 0.00 50 1022.4
20260502120915 -3 332 1.6 1.6 0.00 0.00 0.00 49 1022.4
20260502120410 -3 310 1.6 1.6 0.00 0.00 0.00 48 1022.2
20260502115908 -2 328 0.0 1.6 0.00 0.00 0.00 49 1022.1
20260502115405 -2 10 1.6 4.8 0.00 0.00 0.00 49 1022.1
20260502114901 -1 308 3.2 4.8 0.00 0.00 0.00 47 1022.1
20260502114358 -1 319 0.0 1.6 0.00 0.00 0.00 48 1022.1
20260502113855 0 103 4.8 6.4 0.00 0.00 0.00 44 1022.1
20260502113353 0 43 8.0 8.0 0.00 0.00 0.00 45 1022.1
20260502112851 -1 32 8.0 8.0 0.00 0.00 0.00 45 1022.3
20260502112348 -1 0 4.8 6.4 0.00 0.00 0.00 45 1022.3
20260502111845 -1 297 4.8 6.4 0.00 0.00 0.00 45 1022.3
20260502111343 -1 344 3.2 4.8 0.00 0.00 0.00 45 1022.3
20260502110840 -1 337 1.6 4.8 0.00 0.00 0.00 45 1022.2
20260502110338 0 2 4.8 4.8 0.00 0.00 0.00 45 1022.1
20260502105835 0 340 3.2 4.8 0.00 0.00 0.00 45 1022.2
20260502105332 0 342 0.0 0.0 0.00 0.00 0.00 45 1022.2
20260502104830 0 351 0.0 1.6 0.00 0.00 0.00 45 1022.3
20260502104327 0 350 4.8 4.8 0.00 0.00 0.00 45 1022.2
20260502103824 0 326 0.0 1.6 0.00 0.00 0.00 45 1022.5
20260502103321 0 343 0.0 1.6 0.00 0.00 0.00 43 1022.3
20260502102819 0 334 0.0 1.6 0.00 0.00 0.00 44 1022.4
20260502102315 0 9 1.6 4.8 0.00 0.00 0.00 42 1022.4
20260502101813 0 36 4.8 6.4 0.00 0.00 0.00 42 1022.1
20260502101311 0 62 8.0 11.3 0.00 0.00 0.00 42 1022.3
20260502100809 0 38 3.2 6.4 0.00 0.00 0.00 44 1022.3
20260502100308 -1 342 3.2 4.8 0.00 0.00 0.00 44 1022.3
20260502091241 2 6 4.8 6.4 0.00 0.00 0.00 38 1022.2
20260502090738 1 322 1.6 4.8 0.00 0.00 0.00 40 1022.3
20260502090235 2 2 1.6 4.8 0.00 0.00 0.00 38 1022.4
20260502071136 5 355 8.0 8.0 0.00 0.00 0.00 32 1022.6
20260502070634 6 354 6.4 16.1 0.00 0.00 0.00 31 1022.5
20260502070132 6 12 11.3 16.1 0.00 0.00 0.00 31 1022.5
20260502065630 6 24 9.7 16.1 0.00 0.00 0.00 30 1022.5
20260502065127 6 42 8.0 12.9 0.00 0.00 0.00 31 1022.2
20260502064626 6 18 9.7 16.1 0.00 0.00 0.00 30 1022.3
20260502064122 5 22 8.0 12.9 0.00 0.00 0.00 30 1022.3
20260502063620 5 19 6.4 8.0 0.00 0.00 0.00 31 1022.5
20260502063118 6 19 6.4 17.7 0.00 0.00 0.00 30 1022.2
20260502062614 6 349 14.5 16.1 0.00 0.00 0.00 30 1022.2
20260502062112 6 18 8.0 11.3 0.00 0.00 0.00 31 1022.2
20260502061610 5 23 4.8 11.3 0.00 0.00 0.00 33 1022.3
20260502061107 5 359 6.4 8.0 0.00 0.00 0.00 34 1022.1
20260502060602 6 359 3.2 4.8 0.00 0.00 0.00 33 1022.3
20260502060059 5 14 8.0 8.0 0.00 0.00 0.00 34 1022.2
20260502055556 7 30 4.8 6.4 0.00 0.00 0.00 32 1022.3
20260502055055 7 28 4.8 6.4 0.00 0.00 0.00 31 1021.9
20260502054553 7 30 4.8 6.4 0.00 0.00 0.00 31 1022.1
20260502054050 7 31 4.8 8.0 0.00 0.00 0.00 31 1022.2
20260502053547 6 29 4.8 6.4 0.00 0.00 0.00 31 1022.2
20260502053045 7 24 6.4 8.0 0.00 0.00 0.00 30 1022.2
20260502052543 7 12 8.0 11.3 0.00 0.00 0.00 29 1022.2
20260502052041 6 4 8.0 8.0 0.00 0.00 0.00 31 1021.9
20260502051538 6 357 4.8 6.4 0.00 0.00 0.00 32 1022.1
20260502051036 6 16 4.8 6.4 0.00 0.00 0.00 32 1022.1
20260502050532 7 16 6.4 6.4 0.00 0.00 0.00 31 1021.9
20260502050029 7 24 4.8 6.4 0.00 0.00 0.00 31 1021.8
20260502045526 9 15 9.7 11.3 0.00 0.00 0.00 28 1022.1
20260502045023 10 40 6.4 8.0 0.00 0.00 0.00 26 1021.8
20260502044519 10 51 4.8 6.4 0.00 0.00 0.00 25 1021.8
20260502044016 10 63 4.8 6.4 0.00 0.00 0.00 24 1021.9
20260502043514 10 66 4.8 6.4 0.00 0.00 0.00 25 1021.8
20260502043010 10 71 8.0 8.0 0.00 0.00 0.00 25 1021.5
20260502042505 10 97 4.8 6.4 0.00 0.00 0.00 25 1021.6
20260502042003 10 70 4.8 8.0 0.00 0.00 0.00 26 1021.5
20260502041500 10 74 9.7 12.9 0.00 0.00 0.00 24 1021.5
20260502040956 12 57 11.3 12.9 0.00 0.00 0.00 22 1021.4
20260502040453 12 94 6.4 6.4 0.00 0.00 0.00 21 1021.4
20260502035944 12 97 6.4 8.0 0.00 0.00 0.00 21 1021.4
20260502035440 11 96 6.4 6.4 0.00 0.00 0.00 22 1021.2
20260502034938 12 79 8.0 8.0 0.00 0.00 0.00 22 1021.2
20260502034437 11 78 8.0 8.0 0.00 0.00 0.00 22 1021.1
20260502033935 12 97 4.8 4.8 0.00 0.00 0.00 22 1021.1
20260502033432 12 104 6.4 8.0 0.00 0.00 0.00 21 1020.8
20260502032928 13 100 6.4 6.4 0.00 0.00 0.00 22 1020.8
20260502032425 13 93 4.8 6.4 0.00 0.00 0.00 23 1020.9
20260502031922 13 92 6.4 6.4 0.00 0.00 0.00 23 1020.8
20260502031421 13 101 6.4 8.0 0.00 0.00 0.00 23 1020.8
20260502030919 13 100 6.4 8.0 0.00 0.00 0.00 23 1020.5
20260502030417 13 98 8.0 8.0 0.00 0.00 0.00 22 1020.3
20260502025914 13 103 8.0 8.0 0.00 0.00 0.00 22 1020.7
20260502025411 14 91 6.4 8.0 0.00 0.00 0.00 21 1020.5
20260502024909 15 98 6.4 8.0 0.00 0.00 0.00 21 1020.5
20260502024407 16 79 8.0 8.0 0.00 0.00 0.00 20 1020.5
20260502023904 16 84 8.0 8.0 0.00 0.00 0.00 19 1020.3
20260502023402 17 66 6.4 8.0 0.00 0.00 0.00 19 1020.1
20260502022859 17 67 6.4 6.4 0.00 0.00 0.00 18 1020.3
20260502022355 17 75 4.8 6.4 0.00 0.00 0.00 18 1020.1
20260502021853 17 76 4.8 6.4 0.00 0.00 0.00 18 1020.3
20260502021350 17 72 4.8 8.0 0.00 0.00 0.00 18 1020.2
20260502020847 18 76 8.0 8.0 0.00 0.00 0.00 17 1020.2
20260502020344 18 47 6.4 8.0 0.00 0.00 0.00 17 1020.3
20260502015841 18 142 4.8 8.0 0.00 0.00 0.00 17 1020.2
20260502015338 18 71 6.4 11.3 0.00 0.00 0.00 17 1019.9
20260502014836 18 120 8.0 12.9 0.00 0.00 0.00 17 1020.1
20260502014333 18 134 6.4 8.0 0.00 0.00 0.00 17 1020.1
20260502013829 18 347 3.2 11.3 0.00 0.00 0.00 16 1019.9
20260502013324 19 50 6.4 12.9 0.00 0.00 0.00 16 1019.8
20260502012821 19 173 14.5 17.7 0.00 0.00 0.00 16 1019.9
20260502012319 19 136 8.0 8.0 0.00 0.00 0.00 15 1020.1
20260502011816 20 337 0.0 1.6 0.00 0.00 0.00 15 1019.9
20260502011312 19 347 11.3 17.7 0.00 0.00 0.00 16 1020.1
20260502010810 19 211 8.0 12.9 0.00 0.00 0.00 16 1019.9
20260502010306 20 21 9.7 16.1 0.00 0.00 0.00 16 1020.2
20260502005803 19 347 8.0 8.0 0.00 0.00 0.00 16 1019.8